JR5IZI-13 Weather Reports


Display with metric or nautical units.
time (UTC)temp
F
wind
direction
speed
MPH
gust
MPH
rain 1hr
in
rain 24hr
in
rain mn
in
humidity
%
barometer
mb
20260505040908 60 0.0 0.0 0.00 0.00 0.00 48 1014.5
20260505035415 60 0.0 0.0 0.00 0.00 0.00 48 1014.5
20260505034058 60 0.0 0.0 0.00 0.00 0.00 52 1014.7
20260505032731 60 0.0 0.0 0.00 0.00 0.00 53 1014.9
20260505031333 60 0.0 0.0 0.00 0.00 0.00 56 1015.1
20260505030108 60 0.0 0.0 0.00 0.00 0.00 56 1015.1
20260505024807 60 0.0 0.0 0.00 0.00 0.00 56 1015.2
20260505023511 60 0.0 0.0 0.00 0.00 0.00 56 1015.5
20260505022223 60 0.0 0.0 0.00 0.00 0.00 56 1015.7
20260505020808 60 0.0 0.0 0.00 0.00 0.00 56 1015.8
20260505015335 59 0.0 0.0 0.00 0.00 0.00 55 1015.8
20260505013937 59 0.0 0.0 0.00 0.00 0.00 56 1016.0
20260505012606 59 0.0 0.0 0.00 0.00 0.00 55 1015.9
20260505011318 59 0.0 0.0 0.00 0.00 0.00 56 1016.0
20260505005922 59 0.0 0.0 0.00 0.00 0.00 55 1016.1
20260505004426 59 0.0 0.0 0.00 0.00 0.00 56 1016.2
20260505003217 59 0.0 0.0 0.00 0.00 0.00 56 1016.2
20260505001736 59 0.0 0.0 0.00 0.00 0.00 57 1016.1
20260505000537 59 0.0 0.0 0.00 0.00 0.00 57 1016.2
20260504235153 59 0.0 0.0 0.00 0.00 0.00 56 1016.2
20260504233923 59 0.0 0.0 0.00 0.00 0.00 57 1016.2
20260504232603 59 0.0 0.0 0.00 0.00 0.00 57 1016.2
20260504231340 57 0.0 0.0 0.00 0.00 0.00 57 1016.2
20260504224901 57 0.0 0.0 0.00 0.00 0.00 57 1016.2
20260504223409 57 0.0 0.0 0.00 0.00 0.00 57 1016.1
20260504222211 57 0.0 0.0 0.00 0.00 0.00 58 1016.1
20260504220958 57 0.0 0.0 0.00 0.00 0.00 57 1015.9
20260504215652 57 0.0 0.0 0.00 0.00 0.00 57 1016.0
20260504214411 57 0.0 0.0 0.00 0.00 0.00 58 1015.8
20260504212941 57 0.0 0.0 0.00 0.00 0.00 56 1015.6
20260504211715 57 0.0 0.0 0.00 0.00 0.00 56 1015.6
20260504210439 57 0.0 0.0 0.00 0.00 0.00 56 1015.4
20260504205030 57 0.0 0.0 0.00 0.00 0.00 56 1015.2
20260504203804 57 0.0 0.0 0.00 0.00 0.00 57 1015.0
20260504202528 57 0.0 0.0 0.00 0.00 0.00 57 1014.8
20260504201327 59 0.0 0.0 0.00 0.00 0.00 57 1014.7
20260504195908 59 0.0 0.0 0.00 0.00 0.00 56 1014.4
20260504194625 59 0.0 0.0 0.00 0.00 0.00 56 1014.4
20260504193318 59 0.0 0.0 0.00 0.00 0.00 56 1014.2
20260504191839 59 0.0 0.0 0.00 0.00 0.00 56 1014.0
20260504190631 59 0.0 0.0 0.00 0.00 0.00 55 1014.0
20260504185426 59 0.0 0.0 0.00 0.00 0.00 55 1013.9
20260504183934 59 0.0 0.0 0.00 0.00 0.00 55 1013.7
20260504182644 59 0.0 0.0 0.00 0.00 0.00 55 1013.7
20260504181158 59 0.0 0.0 0.00 0.00 0.00 55 1013.6
20260504175941 59 0.0 0.0 0.00 0.00 0.00 55 1013.5
20260504174740 59 0.0 0.0 0.00 0.00 0.00 55 1013.5
20260504173417 59 0.0 0.0 0.00 0.00 0.00 55 1013.3
20260504172214 60 0.0 0.0 0.00 0.00 0.00 55 1013.3
20260504171008 60 0.0 0.0 0.00 0.00 0.00 55 1013.2
20260504160117 60 0.0 0.0 0.00 0.00 0.00 54 1013.0
20260504150928 60 0.0 0.0 0.00 0.00 0.00 54 1013.1
20260504140123 62 0.0 0.0 0.00 0.00 0.00 53 1013.1
20260504120245 62 0.0 0.0 0.00 0.00 0.00 51 1011.7
20260504110720 62 0.0 0.0 0.00 0.00 0.00 50 1010.8
20260504081723 64 0.0 0.0 0.00 0.00 0.00 51 1007.0
20260504080256 64 0.0 0.0 0.00 0.00 0.00 51 1006.8
20260504060127 64 0.0 0.0 0.00 0.00 0.00 47 1004.6